| time (UTC) | temp F | wind direction | speed knots | gust knots | rain 1hr in | rain 24hr in | rain mn in | humidity % | barometer mb |
| 20260506004854 | 73 | 177 | 1.7 | 5.2 | 0.00 | 0.03 | 0.03 | 48 | 1008.5 |
| 20260506004616 | 72 | 185 | 0.9 | 5.2 | 0.00 | 0.03 | 0.03 | 48 | 1007.8 |
| 20260506004355 | 73 | 172 | 1.7 | 5.2 | 0.00 | 0.03 | 0.03 | 48 | 1008.5 |
| 20260506003856 | 73 | 194 | 0.9 | 5.2 | 0.00 | 0.03 | 0.03 | 48 | 1008.5 |
| 20260506003124 | 73 | 183 | 1.7 | 6.1 | 0.00 | 0.03 | 0.03 | 47 | 1007.9 |
| 20260506002848 | 73 | 195 | 2.6 | 6.1 | 0.00 | 0.03 | 0.03 | 47 | 1008.5 |
| 20260506002356 | 73 | 188 | 1.7 | 7.8 | 0.00 | 0.03 | 0.03 | 47 | 1008.3 |
| 20260506001846 | 74 | 176 | 0.9 | 7.8 | 0.00 | 0.03 | 0.03 | 47 | 1008.3 |
| 20260506001611 | 73 | 239 | 2.6 | 7.8 | 0.00 | 0.03 | 0.03 | 47 | 1007.6 |
| 20260506001355 | 74 | 207 | 1.7 | 7.8 | 0.00 | 0.03 | 0.03 | 47 | 1008.2 |
| 20260506000401 | 74 | 160 | 2.6 | 9.6 | 0.00 | 0.03 | 0.03 | 46 | 1008.1 |
| 20260506000114 | 74 | 206 | 3.5 | 9.6 | 0.00 | 0.03 | 0.03 | 46 | 1007.5 |
| 20260505235840 | 74 | 172 | 3.5 | 9.6 | 0.00 | 0.03 | 0.03 | 46 | 1008.0 |
| 20260505235351 | 75 | 173 | 4.3 | 7.0 | 0.00 | 0.03 | 0.03 | 46 | 1008.0 |
| 20260505234858 | 75 | 176 | 3.5 | 9.6 | 0.00 | 0.03 | 0.03 | 46 | 1008.1 |
| 20260505234611 | 74 | 193 | 2.6 | 9.6 | 0.00 | 0.03 | 0.03 | 46 | 1007.5 |
| 20260505234346 | 75 | 185 | 1.7 | 9.6 | 0.00 | 0.03 | 0.03 | 45 | 1008.1 |
| 20260505233853 | 75 | 252 | 3.5 | 9.6 | 0.00 | 0.03 | 0.03 | 45 | 1008.0 |
| 20260505233403 | 76 | 154 | 4.3 | 9.6 | 0.00 | 0.03 | 0.03 | 44 | 1007.9 |
| 20260505233106 | 75 | 188 | 3.5 | 10.4 | 0.00 | 0.03 | 0.03 | 44 | 1007.2 |
| 20260505232846 | 76 | 189 | 3.5 | 12.2 | 0.00 | 0.03 | 0.03 | 44 | 1007.9 |
| 20260505232336 | 76 | 254 | 2.6 | 12.2 | 0.00 | 0.03 | 0.03 | 42 | 1007.8 |
| 20260505231906 | 76 | 185 | 4.3 | 9.6 | 0.00 | 0.03 | 0.03 | 42 | 1007.8 |
| 20260505231610 | 76 | 216 | 3.5 | 9.6 | 0.00 | 0.03 | 0.03 | 42 | 1007.2 |
| 20260505231353 | 76 | 123 | 4.3 | 10.4 | 0.00 | 0.03 | 0.03 | 42 | 1007.8 |
| 20260505230854 | 76 | 166 | 3.5 | 13.9 | 0.00 | 0.03 | 0.03 | 42 | 1007.8 |
| 20260505230406 | 76 | 212 | 3.5 | 13.9 | 0.00 | 0.03 | 0.03 | 41 | 1007.7 |
| 20260505230107 | 76 | 195 | 5.2 | 13.9 | 0.00 | 0.03 | 0.03 | 42 | 1007.1 |
| 20260505225849 | 76 | 213 | 4.3 | 13.0 | 0.00 | 0.03 | 0.03 | 41 | 1007.7 |
| 20260505225357 | 77 | 191 | 4.3 | 13.0 | 0.00 | 0.03 | 0.03 | 41 | 1007.8 |
| 20260505224855 | 77 | 149 | 4.3 | 13.9 | 0.00 | 0.03 | 0.03 | 41 | 1007.7 |
| 20260505224620 | 76 | 185 | 3.5 | 13.9 | 0.00 | 0.03 | 0.03 | 42 | 1007.1 |
| 20260505224339 | 77 | 218 | 4.3 | 14.8 | 0.00 | 0.03 | 0.03 | 41 | 1007.8 |
| 20260505223847 | 77 | 193 | 5.2 | 14.8 | 0.00 | 0.03 | 0.03 | 41 | 1007.6 |
| 20260505223359 | 77 | 179 | 5.2 | 11.3 | 0.00 | 0.03 | 0.03 | 41 | 1007.6 |
| 20260505223116 | 77 | 204 | 4.3 | 9.6 | 0.00 | 0.03 | 0.03 | 41 | 1006.9 |
| 20260505222839 | 78 | 183 | 3.5 | 11.3 | 0.00 | 0.03 | 0.03 | 40 | 1007.6 |
| 20260505222402 | 78 | 164 | 4.3 | 14.8 | 0.00 | 0.03 | 0.03 | 40 | 1007.5 |
| 20260505221850 | 79 | 144 | 5.2 | 14.8 | 0.00 | 0.03 | 0.03 | 40 | 1007.6 |
| 20260505221618 | 78 | 188 | 4.3 | 11.3 | 0.00 | 0.03 | 0.03 | 39 | 1006.9 |
| 20260505221340 | 79 | 173 | 5.2 | 13.0 | 0.00 | 0.03 | 0.03 | 40 | 1007.5 |
| 20260505220848 | 79 | 191 | 7.0 | 13.0 | 0.00 | 0.03 | 0.03 | 40 | 1007.5 |
| 20260505220359 | 79 | 281 | 4.3 | 12.2 | 0.00 | 0.03 | 0.03 | 41 | 1007.4 |
| 20260505220116 | 78 | 179 | 4.3 | 17.4 | 0.00 | 0.03 | 0.03 | 40 | 1006.8 |
| 20260505215839 | 79 | 160 | 5.2 | 17.4 | 0.00 | 0.03 | 0.03 | 40 | 1007.5 |
| 20260505215345 | 79 | 214 | 6.1 | 17.4 | 0.00 | 0.03 | 0.03 | 40 | 1007.4 |
| 20260505214849 | 79 | 147 | 4.3 | 9.6 | 0.00 | 0.03 | 0.03 | 41 | 1007.4 |
| 20260505214626 | 79 | 212 | 4.3 | 12.2 | 0.00 | 0.03 | 0.03 | 40 | 1006.8 |
| 20260505213849 | 79 | 166 | 4.3 | 13.9 | 0.00 | 0.03 | 0.03 | 40 | 1007.5 |
| 20260505213359 | 79 | 222 | 2.6 | 13.9 | 0.00 | 0.03 | 0.03 | 40 | 1007.5 |
| 20260505213000 | 79 | 206 | 3.5 | 8.7 | 0.00 | 0.03 | 0.03 | 40 | 1006.9 |
| 20260505212900 | 79 | 183 | 2.6 | 9.6 | 0.00 | 0.03 | 0.03 | 40 | 1007.5 |
| 20260505212349 | 79 | 156 | 2.6 | 8.7 | 0.00 | 0.03 | 0.03 | 40 | 1007.4 |
| 20260505211852 | 79 | 151 | 3.5 | 16.5 | 0.00 | 0.03 | 0.03 | 42 | 1007.4 |
| 20260505211621 | 79 | 191 | 3.5 | 16.5 | 0.00 | 0.03 | 0.03 | 40 | 1006.7 |
| 20260505211340 | 79 | 177 | 5.2 | 16.5 | 0.00 | 0.03 | 0.03 | 40 | 1007.3 |
| 20260505210908 | 79 | 185 | 4.3 | 16.5 | 0.00 | 0.03 | 0.03 | 40 | 1007.3 |
| 20260505210419 | 79 | 174 | 4.3 | 13.0 | 0.00 | 0.03 | 0.03 | 40 | 1007.3 |
| 20260505210004 | 79 | 158 | 6.1 | 13.9 | 0.00 | 0.03 | 0.03 | 40 | 1006.7 |
| 20260505205903 | 79 | 197 | 5.2 | 13.9 | 0.00 | 0.03 | 0.03 | 40 | 1007.3 |
| 20260505205354 | 80 | 172 | 3.5 | 14.8 | 0.00 | 0.03 | 0.03 | 40 | 1007.3 |
| 20260505204858 | 80 | 178 | 3.5 | 14.8 | 0.00 | 0.03 | 0.03 | 41 | 1007.3 |
| 20260505204605 | 79 | 185 | 3.5 | 14.8 | 0.00 | 0.03 | 0.03 | 40 | 1006.7 |
| 20260505204346 | 80 | 175 | 6.1 | 15.6 | 0.00 | 0.03 | 0.03 | 40 | 1007.2 |
| 20260505203849 | 79 | 237 | 2.6 | 13.0 | 0.00 | 0.03 | 0.03 | 43 | 1007.3 |
| 20260505203340 | 79 | 218 | 6.1 | 13.0 | 0.00 | 0.03 | 0.03 | 41 | 1007.3 |
| 20260505203122 | 79 | 201 | 6.1 | 13.0 | 0.00 | 0.03 | 0.03 | 41 | 1006.8 |
| 20260505202846 | 79 | 183 | 5.2 | 13.0 | 0.00 | 0.03 | 0.03 | 42 | 1007.4 |
| 20260505202352 | 80 | 165 | 5.2 | 13.9 | 0.00 | 0.03 | 0.03 | 41 | 1007.3 |
| 20260505201839 | 80 | 209 | 5.2 | 13.9 | 0.00 | 0.03 | 0.03 | 42 | 1007.5 |
| 20260505201503 | 79 | 202 | 4.3 | 13.9 | 0.00 | 0.03 | 0.03 | 42 | 1006.8 |
| 20260505201402 | 80 | 199 | 4.3 | 13.9 | 0.00 | 0.03 | 0.03 | 43 | 1007.4 |
| 20260505200840 | 79 | 181 | 7.0 | 14.8 | 0.00 | 0.03 | 0.03 | 42 | 1007.4 |
| 20260505200351 | 80 | 168 | 7.0 | 14.8 | 0.00 | 0.03 | 0.03 | 41 | 1007.5 |
| 20260505200113 | 79 | 174 | 3.5 | 13.0 | 0.00 | 0.03 | 0.03 | 43 | 1006.9 |
| 20260505195854 | 80 | 199 | 4.3 | 13.0 | 0.00 | 0.03 | 0.03 | 41 | 1007.6 |
| 20260505195341 | 80 | 205 | 3.5 | 10.4 | 0.00 | 0.03 | 0.03 | 42 | 1007.5 |
| 20260505194851 | 80 | 205 | 4.3 | 12.2 | 0.00 | 0.03 | 0.03 | 41 | 1007.6 |
| 20260505194620 | 80 | 223 | 3.5 | 12.2 | 0.00 | 0.03 | 0.03 | 41 | 1007.0 |
| 20260505194342 | 80 | 228 | 5.2 | 12.2 | 0.00 | 0.03 | 0.03 | 42 | 1007.6 |
| 20260505193850 | 80 | 209 | 3.5 | 13.9 | 0.00 | 0.03 | 0.03 | 43 | 1007.6 |
| 20260505193345 | 80 | 195 | 6.1 | 13.9 | 0.00 | 0.03 | 0.03 | 43 | 1007.7 |
| 20260505193009 | 79 | 213 | 4.3 | 11.3 | 0.00 | 0.03 | 0.03 | 44 | 1007.1 |
| 20260505192903 | 80 | 181 | 5.2 | 11.3 | 0.00 | 0.03 | 0.03 | 44 | 1007.7 |
| 20260505192351 | 80 | 199 | 4.3 | 20.9 | 0.00 | 0.03 | 0.03 | 46 | 1007.8 |
| 20260505191900 | 80 | 191 | 7.8 | 20.9 | 0.00 | 0.03 | 0.03 | 44 | 1008.0 |
| 20260505191507 | 79 | 177 | 4.3 | 14.8 | 0.00 | 0.03 | 0.03 | 45 | 1007.2 |
| 20260505191404 | 79 | 211 | 4.3 | 14.8 | 0.00 | 0.03 | 0.03 | 46 | 1007.8 |
| 20260505190850 | 80 | 241 | 7.0 | 14.8 | 0.00 | 0.03 | 0.03 | 43 | 1007.9 |
| 20260505190341 | 80 | 214 | 3.5 | 9.6 | 0.00 | 0.03 | 0.03 | 43 | 1007.9 |
| 20260505190105 | 80 | 195 | 4.3 | 12.2 | 0.00 | 0.03 | 0.03 | 43 | 1007.4 |
| 20260505185846 | 81 | 171 | 4.3 | 12.2 | 0.00 | 0.03 | 0.03 | 40 | 1007.9 |
| 20260505185339 | 81 | 259 | 5.2 | 12.2 | 0.00 | 0.03 | 0.03 | 37 | 1008.0 |
| 20260505184846 | 81 | 256 | 3.5 | 10.4 | 0.00 | 0.03 | 0.03 | 41 | 1008.0 |
| 20260505184611 | 80 | 253 | 3.5 | 9.6 | 0.00 | 0.03 | 0.03 | 38 | 1007.4 |
| 20260505184358 | 81 | 251 | 3.5 | 12.2 | 0.00 | 0.03 | 0.03 | 39 | 1008.2 |
| 20260505183837 | 81 | 175 | 4.3 | 12.2 | 0.00 | 0.03 | 0.03 | 41 | 1008.2 |
| 20260505183409 | 80 | 222 | 3.5 | 10.4 | 0.00 | 0.03 | 0.03 | 39 | 1008.2 |
| 20260505183106 | 80 | 214 | 3.5 | 10.4 | 0.00 | 0.03 | 0.03 | 37 | 1007.5 |
| 20260505182908 | 80 | 187 | 5.2 | 12.2 | 0.00 | 0.03 | 0.03 | 36 | 1008.2 |
| 20260505182340 | 80 | 220 | 3.5 | 16.5 | 0.00 | 0.03 | 0.03 | 39 | 1008.4 |
| 20260505181902 | 80 | 220 | 3.5 | 16.5 | 0.00 | 0.03 | 0.03 | 41 | 1008.6 |
| 20260505181608 | 80 | 204 | 2.6 | 12.2 | 0.00 | 0.03 | 0.03 | 37 | 1007.9 |
| 20260505181410 | 80 | 191 | 4.3 | 13.0 | 0.00 | 0.03 | 0.03 | 37 | 1008.5 |
| 20260505180856 | 80 | 251 | 3.5 | 13.0 | 0.00 | 0.03 | 0.03 | 40 | 1008.4 |
| 20260505180345 | 80 | 182 | 6.1 | 12.2 | 0.00 | 0.03 | 0.03 | 38 | 1008.6 |
| 20260505180115 | 79 | 196 | 2.6 | 8.7 | 0.00 | 0.03 | 0.03 | 40 | 1008.0 |
| 20260505175849 | 80 | 259 | 3.5 | 8.7 | 0.00 | 0.03 | 0.03 | 40 | 1008.5 |
| 20260505175418 | 79 | 194 | 4.3 | 8.7 | 0.00 | 0.03 | 0.03 | 41 | 1008.7 |
| 20260505174619 | 79 | 235 | 4.3 | 13.9 | 0.00 | 0.03 | 0.03 | 40 | 1008.3 |
| 20260505174340 | 79 | 261 | 4.3 | 13.0 | 0.00 | 0.03 | 0.03 | 43 | 1008.9 |
| 20260505173845 | 79 | 240 | 4.3 | 8.7 | 0.00 | 0.03 | 0.03 | 41 | 1008.9 |
| 20260505173341 | 79 | 278 | 5.2 | 14.8 | 0.00 | 0.03 | 0.03 | 40 | 1008.9 |
| 20260505173120 | 79 | 289 | 5.2 | 14.8 | 0.00 | 0.03 | 0.03 | 41 | 1008.5 |
| 20260505172846 | 79 | 235 | 4.3 | 14.8 | 0.00 | 0.03 | 0.03 | 41 | 1008.9 |
| 20260505172354 | 79 | 156 | 3.5 | 13.9 | 0.00 | 0.03 | 0.03 | 44 | 1008.9 |
| 20260505171900 | 79 | 281 | 4.3 | 13.9 | 0.00 | 0.03 | 0.03 | 42 | 1008.9 |
| 20260505171504 | 78 | 255 | 5.2 | 14.8 | 0.00 | 0.03 | 0.03 | 41 | 1008.5 |
| 20260505171402 | 79 | 243 | 4.3 | 12.2 | 0.00 | 0.03 | 0.03 | 46 | 1009.0 |
| 20260505170846 | 79 | 188 | 4.3 | 14.8 | 0.00 | 0.03 | 0.03 | 45 | 1009.1 |
| 20260505170353 | 78 | 203 | 4.3 | 14.8 | 0.00 | 0.03 | 0.03 | 43 | 1009.0 |
| 20260505170114 | 78 | 150 | 5.2 | 14.8 | 0.00 | 0.03 | 0.03 | 44 | 1008.6 |
| 20260505165837 | 78 | 195 | 284.2 | 284.2 | 0.00 | 0.00 | 0.03 | 42 | 1009.0 |
| 20260505165345 | 78 | 313 | 4.3 | 16.5 | 0.00 | 0.03 | 0.03 | 43 | 1009.3 |
| 20260505164909 | 78 | 256 | 3.5 | 16.5 | 0.00 | 0.03 | 0.03 | 43 | 1009.3 |
| 20260505164615 | 78 | 185 | 4.3 | 15.6 | 0.00 | 0.03 | 0.03 | 44 | 1008.8 |
| 20260505164340 | 78 | 183 | 3.5 | 11.3 | 0.00 | 0.03 | 0.03 | 46 | 1009.3 |
| 20260505163846 | 77 | 172 | 3.5 | 9.6 | 0.00 | 0.03 | 0.03 | 47 | 1009.4 |
| 20260505163121 | 77 | 194 | 3.5 | 15.6 | 0.00 | 0.03 | 0.03 | 47 | 1009.0 |
| 20260505162844 | 77 | 185 | 6.1 | 15.6 | 0.00 | 0.03 | 0.03 | 48 | 1009.6 |
| 20260505162352 | 77 | 260 | 3.5 | 10.4 | 0.00 | 0.03 | 0.03 | 50 | 1009.7 |
| 20260505161913 | 76 | 239 | 2.6 | 11.3 | 0.00 | 0.03 | 0.03 | 51 | 1009.8 |
| 20260505161623 | 76 | 208 | 2.6 | 11.3 | 0.00 | 0.03 | 0.03 | 51 | 1009.2 |
| 20260505161339 | 76 | 224 | 1.7 | 11.3 | 0.00 | 0.03 | 0.03 | 50 | 1009.7 |
| 20260505160905 | 76 | 239 | 5.2 | 9.6 | 0.00 | 0.03 | 0.03 | 51 | 1009.8 |
| 20260505160352 | 76 | 166 | 3.5 | 9.6 | 0.00 | 0.03 | 0.03 | 51 | 1009.8 |
| 20260505160107 | 75 | 250 | 2.6 | 10.4 | 0.00 | 0.03 | 0.03 | 50 | 1009.2 |
| 20260505153347 | 74 | 202 | 2.6 | 7.0 | 0.00 | 0.03 | 0.03 | 52 | 1009.9 |
| 20260505153108 | 73 | 215 | 3.5 | 7.0 | 0.00 | 0.03 | 0.03 | 52 | 1009.6 |
| 20260505152909 | 74 | 231 | 1.7 | 7.0 | 0.00 | 0.03 | 0.03 | 55 | 1010.1 |
| 20260505152356 | 73 | 171 | 3.5 | 9.6 | 0.00 | 0.03 | 0.03 | 52 | 1010.1 |
| 20260505151855 | 73 | 251 | 3.5 | 9.6 | 0.00 | 0.03 | 0.03 | 54 | 1010.2 |
| 20260505151505 | 72 | 214 | 2.6 | 9.6 | 0.00 | 0.03 | 0.03 | 56 | 1009.8 |
| 20260505151343 | 73 | 221 | 5.2 | 9.6 | 0.00 | 0.03 | 0.03 | 55 | 1010.3 |
| 20260505150847 | 73 | 196 | 3.5 | 8.7 | 0.00 | 0.03 | 0.03 | 55 | 1010.3 |
| 20260505150355 | 73 | 254 | 2.6 | 12.2 | 0.00 | 0.03 | 0.03 | 57 | 1010.3 |
| 20260505150115 | 72 | 208 | 3.5 | 12.2 | 0.00 | 0.03 | 0.03 | 54 | 1009.8 |
| 20260505140351 | 69 | 189 | 3.5 | 7.8 | 0.00 | 0.03 | 0.03 | 61 | 1010.7 |
| 20260505140124 | 68 | 197 | 2.6 | 8.7 | 0.00 | 0.03 | 0.03 | 62 | 1010.3 |
| 20260505130109 | 64 | 212 | 1.7 | 7.0 | 0.00 | 0.03 | 0.03 | 69 | 1010.8 |
| 20260505124849 | 64 | 249 | 2.6 | 6.1 | 0.00 | 0.03 | 0.03 | 71 | 1011.0 |
| 20260505124616 | 63 | 243 | 1.7 | 7.0 | 0.00 | 0.03 | 0.03 | 72 | 1010.6 |
| 20260505124337 | 64 | 181 | 1.7 | 7.0 | 0.00 | 0.03 | 0.03 | 74 | 1011.0 |
| 20260505123844 | 63 | 208 | 2.6 | 7.0 | 0.00 | 0.03 | 0.03 | 74 | 1010.9 |
| 20260505123351 | 63 | 220 | 0.9 | 4.3 | 0.00 | 0.03 | 0.03 | 75 | 1010.8 |
| 20260505123106 | 62 | 180 | 1.7 | 6.1 | 0.00 | 0.03 | 0.03 | 74 | 1010.4 |
| 20260505122852 | 62 | 195 | 0.9 | 6.1 | 0.00 | 0.03 | 0.03 | 76 | 1010.7 |
| 20260505122337 | 62 | 226 | 1.7 | 6.1 | 0.00 | 0.03 | 0.03 | 76 | 1010.6 |
| 20260505121845 | 62 | 178 | 1.7 | 6.1 | 0.00 | 0.03 | 0.03 | 76 | 1010.6 |
| 20260505121608 | 61 | 188 | 1.7 | 6.1 | 0.00 | 0.03 | 0.03 | 77 | 1010.3 |
| 20260505121414 | 61 | 248 | 2.6 | 5.2 | 0.00 | 0.03 | 0.03 | 76 | 1010.7 |
| 20260505120418 | 61 | 242 | 0.9 | 4.3 | 0.00 | 0.03 | 0.03 | 77 | 1010.6 |
| 20260505120112 | 60 | 197 | 0.9 | 4.3 | 0.00 | 0.03 | 0.03 | 77 | 1010.2 |
| 20260505115838 | 61 | 205 | 0.9 | 4.3 | 0.00 | 0.03 | 0.03 | 77 | 1010.6 |
| 20260505115348 | 60 | 198 | 0.9 | 3.5 | 0.00 | 0.03 | 0.03 | 79 | 1010.6 |
| 20260505114849 | 60 | 185 | 0.9 | 3.5 | 0.00 | 0.03 | 0.03 | 80 | 1010.7 |
| 20260505114611 | 59 | 160 | 0.9 | 2.6 | 0.00 | 0.03 | 0.03 | 80 | 1010.3 |
| 20260505114358 | 59 | 174 | 0.9 | 2.6 | 0.00 | 0.03 | 0.03 | 81 | 1010.6 |
| 20260505113918 | 58 | 274 | 0.9 | 1.7 | 0.00 | 0.03 | 0.03 | 83 | 1010.7 |
| 20260505113344 | 58 | 170 | 0.0 | 1.7 | 0.00 | 0.03 | 0.03 | 86 | 1010.4 |
| 20260505113123 | 57 | 175 | 0.0 | 1.7 | 0.00 | 0.03 | 0.03 | 86 | 1010.1 |
| 20260505112847 | 57 | 163 | 0.0 | 1.7 | 0.00 | 0.03 | 0.03 | 88 | 1010.3 |
| 20260505112336 | 56 | 187 | 0.0 | 1.7 | 0.00 | 0.03 | 0.03 | 92 | 1010.5 |
| 20260505111845 | 56 | 220 | 0.0 | 0.0 | 0.00 | 0.03 | 0.03 | 93 | 1010.5 |
| 20260505111615 | 55 | 334 | 0.0 | 0.0 | 0.00 | 0.03 | 0.03 | 94 | 1010.1 |
| 20260505111355 | 55 | 334 | 0.0 | 0.9 | 0.00 | 0.03 | 0.03 | 95 | 1010.3 |
| 20260505110839 | 54 | 334 | 0.0 | 0.9 | 0.00 | 0.03 | 0.03 | 96 | 1010.2 |
| 20260505110406 | 53 | 334 | 0.0 | 0.9 | 0.00 | 0.03 | 0.03 | 97 | 1010.2 |
| 20260505110106 | 52 | 334 | 0.0 | 0.0 | 0.00 | 0.03 | 0.03 | 97 | 1009.9 |
| 20260505101853 | 51 | 270 | 0.0 | 0.0 | 0.00 | 0.03 | 0.03 | 95 | 1010.0 |
| 20260505101614 | 51 | 270 | 0.0 | 0.0 | 0.00 | 0.03 | 0.03 | 95 | 1009.6 |
| 20260505101335 | 51 | 270 | 0.0 | 0.9 | 0.00 | 0.03 | 0.03 | 95 | 1010.1 |
| 20260505100119 | 51 | 270 | 0.0 | 0.0 | 0.00 | 0.03 | 0.03 | 95 | 1009.7 |
| 20260505095844 | 51 | 270 | 0.0 | 0.0 | 0.00 | 0.03 | 0.03 | 95 | 1010.1 |
| 20260505095409 | 52 | 270 | 0.0 | 0.9 | 0.00 | 0.03 | 0.03 | 94 | 1010.0 |
| 20260505094854 | 52 | 270 | 0.0 | 1.7 | 0.00 | 0.03 | 0.03 | 94 | 1010.0 |
| 20260505094618 | 51 | 270 | 0.0 | 1.7 | 0.00 | 0.03 | 0.03 | 94 | 1009.7 |
| 20260505094342 | 52 | 270 | 0.0 | 1.7 | 0.00 | 0.03 | 0.03 | 94 | 1010.0 |
| 20260505093846 | 52 | 270 | 0.0 | 1.7 | 0.00 | 0.03 | 0.03 | 94 | 1010.0 |
| 20260505093356 | 52 | 333 | 0.0 | 1.7 | 0.00 | 0.03 | 0.03 | 94 | 1010.0 |
| 20260505093111 | 52 | 342 | 0.0 | 1.7 | 0.00 | 0.03 | 0.03 | 93 | 1009.7 |
| 20260505092856 | 53 | 342 | 0.0 | 1.7 | 0.00 | 0.03 | 0.03 | 93 | 1009.9 |
| 20260505092344 | 53 | 342 | 0.0 | 0.0 | 0.00 | 0.03 | 0.03 | 93 | 1009.8 |
| 20260505091849 | 53 | 342 | 0.0 | 0.0 | 0.00 | 0.03 | 0.03 | 93 | 1009.8 |
| 20260505091620 | 53 | 342 | 0.0 | 0.0 | 0.01 | 0.03 | 0.03 | 93 | 1009.5 |
| 20260505091356 | 53 | 342 | 0.0 | 1.7 | 0.01 | 0.03 | 0.03 | 93 | 1009.8 |
| 20260505090917 | 54 | 342 | 0.0 | 1.7 | 0.01 | 0.03 | 0.03 | 93 | 1009.9 |
| 20260505090343 | 54 | 342 | 0.0 | 1.7 | 0.03 | 0.03 | 0.03 | 92 | 1009.9 |
| 20260505090121 | 53 | 342 | 0.0 | 1.7 | 0.03 | 0.03 | 0.03 | 92 | 1009.6 |
| 20260505085845 | 54 | 342 | 0.0 | 1.7 | 0.03 | 0.03 | 0.03 | 92 | 1010.0 |
| 20260505085353 | 54 | 342 | 0.0 | 1.7 | 0.03 | 0.03 | 0.03 | 91 | 1010.1 |
| 20260505084854 | 54 | 342 | 0.9 | 1.7 | 0.03 | 0.03 | 0.03 | 90 | 1010.1 |
| 20260505084615 | 54 | 308 | 0.0 | 1.7 | 0.03 | 0.03 | 0.03 | 90 | 1009.7 |
| 20260505084338 | 55 | 308 | 0.0 | 0.9 | 0.03 | 0.03 | 0.03 | 90 | 1010.0 |
| 20260505083843 | 55 | 308 | 0.0 | 1.7 | 0.03 | 0.03 | 0.03 | 89 | 1010.0 |
| 20260505083352 | 55 | 316 | 0.9 | 1.7 | 0.03 | 0.03 | 0.03 | 88 | 1009.9 |
| 20260505083106 | 55 | 308 | 0.0 | 1.7 | 0.03 | 0.03 | 0.03 | 87 | 1009.6 |
| 20260505082850 | 56 | 322 | 1.7 | 1.7 | 0.03 | 0.03 | 0.03 | 86 | 1009.9 |
| 20260505082356 | 57 | 298 | 0.0 | 1.7 | 0.03 | 0.03 | 0.03 | 84 | 1010.0 |
| 20260505081613 | 57 | 298 | 0.0 | 1.7 | 0.02 | 0.02 | 0.02 | 82 | 1009.7 |
| 20260505081357 | 58 | 299 | 0.9 | 3.5 | 0.02 | 0.02 | 0.02 | 78 | 1010.0 |
| 20260505080859 | 59 | 326 | 0.0 | 6.1 | 0.02 | 0.02 | 0.02 | 74 | 1009.9 |
| 20260505080344 | 60 | 312 | 2.6 | 6.1 | 0.00 | 0.00 | 0.00 | 70 | 1010.1 |
| 20260505080120 | 59 | 272 | 2.6 | 6.1 | 0.00 | 0.00 | 0.00 | 70 | 1009.8 |
| 20260505075846 | 60 | 286 | 1.7 | 3.5 | 0.00 | 0.00 | 0.00 | 69 | 1009.9 |
| 20260505075355 | 59 | 235 | 0.0 | 3.5 | 0.00 | 0.00 | 0.00 | 69 | 1009.7 |
| 20260505074840 | 59 | 184 | 0.9 | 6.1 | 0.00 | 0.00 | 0.00 | 69 | 1009.5 |
| 20260505074608 | 59 | 208 | 0.9 | 6.1 | 0.00 | 0.00 | 0.00 | 68 | 1009.1 |
| 20260505074347 | 60 | 157 | 1.7 | 6.1 | 0.00 | 0.00 | 0.00 | 68 | 1009.3 |
| 20260505073851 | 59 | 197 | 1.7 | 3.5 | 0.00 | 0.00 | 0.00 | 67 | 1009.5 |
| 20260505073342 | 59 | 181 | 0.9 | 3.5 | 0.00 | 0.00 | 0.00 | 67 | 1009.4 |
| 20260505073123 | 59 | 150 | 0.9 | 4.3 | 0.00 | 0.00 | 0.00 | 68 | 1009.1 |
| 20260505072844 | 59 | 196 | 1.7 | 6.1 | 0.00 | 0.00 | 0.00 | 67 | 1009.5 |
| 20260505072353 | 59 | 195 | 1.7 | 6.1 | 0.00 | 0.00 | 0.00 | 67 | 1009.5 |
| 20260505071837 | 59 | 213 | 1.7 | 6.1 | 0.00 | 0.00 | 0.00 | 67 | 1009.7 |
| 20260505071625 | 59 | 187 | 1.7 | 6.1 | 0.00 | 0.00 | 0.00 | 67 | 1009.3 |
| 20260505071345 | 60 | 228 | 1.7 | 6.1 | 0.00 | 0.00 | 0.00 | 67 | 1009.6 |
| 20260505070848 | 60 | 212 | 1.7 | 4.3 | 0.00 | 0.00 | 0.00 | 64 | 1009.6 |
| 20260505070358 | 60 | 193 | 0.9 | 4.3 | 0.00 | 0.00 | 0.00 | 64 | 1009.7 |
| 20260505070115 | 59 | 177 | 0.9 | 4.3 | 0.00 | 0.00 | 0.00 | 65 | 1009.3 |
| 20260505065857 | 59 | 175 | 0.9 | 3.5 | 0.00 | 0.00 | 0.00 | 64 | 1009.5 |
| 20260505065342 | 59 | 208 | 0.0 | 3.5 | 0.00 | 0.00 | 0.00 | 64 | 1009.6 |
| 20260505064849 | 59 | 231 | 0.9 | 3.5 | 0.00 | 0.00 | 0.00 | 64 | 1009.6 |
| 20260505064616 | 59 | 215 | 0.0 | 3.5 | 0.00 | 0.00 | 0.00 | 63 | 1009.3 |
| 20260505064336 | 59 | 231 | 0.9 | 3.5 | 0.00 | 0.00 | 0.00 | 63 | 1009.7 |
| 20260505063845 | 59 | 192 | 1.7 | 2.6 | 0.00 | 0.00 | 0.00 | 62 | 1009.7 |
| 20260505063416 | 60 | 189 | 0.9 | 2.6 | 0.00 | 0.00 | 0.00 | 62 | 1009.7 |
| 20260505063140 | 59 | 169 | 0.0 | 2.6 | 0.00 | 0.00 | 0.00 | 62 | 1009.4 |
| 20260505062836 | 60 | 189 | 0.9 | 2.6 | 0.00 | 0.00 | 0.00 | 62 | 1009.7 |
| 20260505062346 | 60 | 199 | 0.9 | 3.5 | 0.00 | 0.00 | 0.00 | 61 | 1009.7 |
| 20260505061914 | 60 | 210 | 0.9 | 3.5 | 0.00 | 0.00 | 0.00 | 61 | 1009.7 |
| 20260505061640 | 60 | 191 | 0.9 | 4.3 | 0.00 | 0.00 | 0.00 | 61 | 1009.4 |
| 20260505061342 | 60 | 222 | 0.9 | 4.3 | 0.00 | 0.00 | 0.00 | 61 | 1009.7 |
| 20260505060848 | 60 | 197 | 1.7 | 4.3 | 0.00 | 0.00 | 0.00 | 60 | 1009.8 |
| 20260505060357 | 61 | 168 | 0.9 | 4.3 | 0.00 | 0.00 | 0.00 | 60 | 1009.8 |
| 20260505060114 | 60 | 169 | 0.9 | 4.3 | 0.00 | 0.00 | 0.00 | 60 | 1009.5 |
| 20260505055854 | 61 | 220 | 0.9 | 4.3 | 0.00 | 0.00 | 0.00 | 60 | 1009.7 |
| 20260505055402 | 61 | 188 | 1.7 | 4.3 | 0.00 | 0.00 | 0.00 | 59 | 1009.8 |
| 20260505054621 | 60 | 206 | 1.7 | 5.2 | 0.00 | 0.00 | 0.00 | 59 | 1009.4 |
| 20260505054341 | 61 | 214 | 0.0 | 4.3 | 0.00 | 0.00 | 0.00 | 59 | 1009.7 |
| 20260505053408 | 61 | 219 | 0.9 | 2.6 | 0.00 | 0.00 | 0.00 | 59 | 1009.8 |
| 20260505053110 | 60 | 197 | 0.0 | 2.6 | 0.00 | 0.00 | 0.00 | 59 | 1009.6 |
| 20260505052852 | 61 | 249 | 0.9 | 2.6 | 0.00 | 0.00 | 0.00 | 59 | 1009.8 |
| 20260505052341 | 61 | 224 | 0.0 | 2.6 | 0.00 | 0.00 | 0.00 | 59 | 1009.7 |
| 20260505051848 | 61 | 226 | 0.0 | 4.3 | 0.00 | 0.00 | 0.00 | 58 | 1009.8 |
| 20260505051618 | 60 | 237 | 0.0 | 4.3 | 0.00 | 0.00 | 0.00 | 58 | 1009.5 |
| 20260505051357 | 61 | 210 | 0.0 | 4.3 | 0.00 | 0.00 | 0.00 | 58 | 1009.8 |
| 20260505050843 | 61 | 209 | 0.0 | 2.6 | 0.00 | 0.00 | 0.00 | 58 | 1009.7 |
| 20260505050353 | 61 | 250 | 0.0 | 2.6 | 0.00 | 0.00 | 0.00 | 58 | 1009.8 |
| 20260505050116 | 61 | 241 | 0.9 | 2.6 | 0.00 | 0.00 | 0.00 | 58 | 1009.5 |
| 20260505041620 | 61 | 218 | 0.0 | 5.2 | 0.00 | 0.00 | 0.00 | 56 | 1009.4 |
| 20260505041345 | 62 | 189 | 0.0 | 5.2 | 0.00 | 0.00 | 0.00 | 56 | 1009.7 |
| 20260505040912 | 62 | 213 | 0.9 | 4.3 | 0.00 | 0.00 | 0.00 | 56 | 1009.7 |
| 20260505040340 | 61 | 181 | 0.9 | 3.5 | 0.00 | 0.00 | 0.00 | 56 | 1009.6 |
| 20260505040118 | 61 | 200 | 0.0 | 3.5 | 0.00 | 0.00 | 0.00 | 56 | 1009.3 |
| 20260505035844 | 61 | 195 | 0.9 | 3.5 | 0.00 | 0.00 | 0.00 | 57 | 1009.6 |
| 20260505035352 | 61 | 199 | 0.0 | 2.6 | 0.00 | 0.00 | 0.00 | 57 | 1009.5 |
| 20260505034838 | 60 | 209 | 0.0 | 2.6 | 0.00 | 0.00 | 0.00 | 57 | 1009.5 |
| 20260505034513 | 60 | 210 | 0.0 | 2.6 | 0.00 | 0.00 | 0.00 | 58 | 1009.1 |
| 20260505034409 | 61 | 202 | 0.0 | 0.0 | 0.00 | 0.00 | 0.00 | 58 | 1009.4 |
| 20260505033916 | 61 | 202 | 0.0 | 0.0 | 0.00 | 0.00 | 0.00 | 57 | 1009.4 |
| 20260505033106 | 61 | 217 | 0.0 | 1.7 | 0.00 | 0.00 | 0.00 | 56 | 1009.2 |
| 20260505032848 | 61 | 229 | 0.0 | 1.7 | 0.00 | 0.00 | 0.00 | 56 | 1009.5 |
| 20260505032350 | 62 | 246 | 0.0 | 1.7 | 0.00 | 0.00 | 0.00 | 56 | 1009.5 |
| 20260505031836 | 62 | 208 | 284.2 | 284.2 | 0.00 | 0.00 | 0.00 | 54 | 1009.4 |
| 20260505031606 | 61 | 222 | 0.0 | 2.6 | 0.00 | 0.00 | 0.00 | 54 | 1009.3 |
| 20260505031347 | 62 | 198 | 0.0 | 2.6 | 0.00 | 0.00 | 0.00 | 54 | 1009.5 |
| 20260505030852 | 62 | 199 | 0.9 | 2.6 | 0.00 | 0.00 | 0.00 | 54 | 1009.5 |
| 20260505030401 | 62 | 195 | 0.9 | 1.7 | 0.00 | 0.00 | 0.00 | 54 | 1009.6 |
| 20260505030122 | 62 | 206 | 0.0 | 2.6 | 0.00 | 0.00 | 0.00 | 54 | 1009.3 |
| 20260505025843 | 62 | 210 | 0.0 | 2.6 | 0.00 | 0.00 | 0.00 | 54 | 1009.6 |
| 20260505025347 | 62 | 214 | 0.0 | 3.5 | 0.00 | 0.00 | 0.00 | 53 | 1009.7 |
| 20260505024852 | 62 | 202 | 0.9 | 3.5 | 0.00 | 0.00 | 0.00 | 53 | 1009.6 |
| 20260505024620 | 62 | 193 | 0.0 | 4.3 | 0.00 | 0.00 | 0.00 | 53 | 1009.4 |
| 20260505024342 | 62 | 183 | 0.0 | 4.3 | 0.00 | 0.00 | 0.00 | 53 | 1009.7 |
| 20260505023846 | 63 | 208 | 0.0 | 1.7 | 0.00 | 0.00 | 0.00 | 52 | 1009.6 |
| 20260505023339 | 63 | 248 | 0.0 | 2.6 | 0.00 | 0.00 | 0.00 | 52 | 1009.6 |
| 20260505023118 | 62 | 193 | 0.0 | 3.5 | 0.00 | 0.00 | 0.00 | 52 | 1009.4 |
| 20260505022844 | 63 | 189 | 0.9 | 3.5 | 0.00 | 0.00 | 0.00 | 51 | 1009.7 |
| 20260505022406 | 63 | 168 | 1.7 | 3.5 | 0.00 | 0.00 | 0.00 | 51 | 1009.8 |
| 20260505021847 | 63 | 191 | 0.0 | 4.3 | 0.00 | 0.00 | 0.00 | 52 | 1009.8 |
| 20260505021610 | 62 | 170 | 0.0 | 4.3 | 0.00 | 0.00 | 0.00 | 51 | 1009.6 |
| 20260505021411 | 63 | 168 | 0.9 | 4.3 | 0.00 | 0.00 | 0.00 | 51 | 1009.9 |
| 20260505020914 | 63 | 213 | 0.9 | 3.5 | 0.00 | 0.00 | 0.00 | 51 | 1009.9 |
| 20260505020341 | 63 | 206 | 0.9 | 2.6 | 0.00 | 0.00 | 0.00 | 51 | 1009.9 |
| 20260505020114 | 63 | 185 | 0.0 | 2.6 | 0.00 | 0.00 | 0.00 | 50 | 1009.7 |
| 20260505015855 | 64 | 184 | 0.9 | 2.6 | 0.00 | 0.00 | 0.00 | 50 | 1009.9 |
| 20260505015345 | 64 | 244 | 0.9 | 4.3 | 0.00 | 0.00 | 0.00 | 50 | 1009.9 |
| 20260505014848 | 64 | 196 | 1.7 | 4.3 | 0.00 | 0.00 | 0.00 | 50 | 1009.9 |
| 20260505014611 | 63 | 192 | 0.9 | 4.3 | 0.00 | 0.00 | 0.00 | 50 | 1009.7 |
| 20260505014352 | 64 | 197 | 0.9 | 3.5 | 0.00 | 0.00 | 0.00 | 50 | 1009.9 |
| 20260505013854 | 64 | 199 | 0.9 | 3.5 | 0.00 | 0.00 | 0.00 | 50 | 1009.8 |
| 20260505013344 | 64 | 201 | 0.9 | 4.3 | 0.00 | 0.00 | 0.00 | 49 | 1009.8 |
| 20260505013118 | 64 | 195 | 0.0 | 5.2 | 0.00 | 0.00 | 0.00 | 49 | 1009.5 |
| 20260505012839 | 64 | 205 | 0.9 | 5.2 | 0.00 | 0.00 | 0.00 | 49 | 1009.8 |
| 20260505012343 | 64 | 197 | 1.7 | 5.2 | 0.00 | 0.00 | 0.00 | 49 | 1009.7 |
| 20260505011855 | 64 | 266 | 0.9 | 5.2 | 0.00 | 0.00 | 0.00 | 49 | 1009.6 |
| 20260505011619 | 64 | 166 | 1.7 | 7.0 | 0.00 | 0.00 | 0.00 | 49 | 1009.4 |
| 20260505011339 | 65 | 203 | 2.6 | 7.0 | 0.00 | 0.00 | 0.00 | 49 | 1009.5 |
| 20260505010843 | 64 | 165 | 2.6 | 7.0 | 0.00 | 0.00 | 0.00 | 49 | 1009.5 |
| 20260505010349 | 64 | 194 | 2.6 | 7.0 | 0.00 | 0.00 | 0.00 | 49 | 1009.5 |
| 20260505010114 | 64 | 152 | 1.7 | 6.1 | 0.00 | 0.00 | 0.00 | 50 | 1009.2 |
| 20260505005844 | 64 | 222 | 0.9 | 5.2 | 0.00 | 0.00 | 0.00 | 49 | 1009.5 |
| 20260505005414 | 64 | 180 | 0.9 | 4.3 | 0.00 | 0.00 | 0.00 | 50 | 1009.4 |